Date,TemperatureHighF,TemperatureAvgF,TemperatureLowF,DewpointHighF,DewpointAvgF,DewpointLowF,HumidityHigh,HumidityAvg,HumidityLow,PressureMaxIn,PressureMinIn,WindSpeedMaxMPH,WindSpeedAvgMPH,GustSpeedMaxMPH,PrecipitationSumIn
2013-7-1,97.0,80.4,67.5,62.8,57.1,53.6,51,48,45,29.78,29.68,6,0,9,0.00
2013-7-2,88.9,76.7,67.6,62.2,56.5,52.9,51,48,44,29.88,29.77,7,0,9,0.00
2013-7-3,90.1,74.6,66.0,61.3,56.1,52.7,53,49,46,29.84,29.71,5,0,10,0.00
2013-7-4,89.4,74.1,64.2,58.8,55.7,53.1,52,49,46,29.75,29.64,8,0,9,0.00
2013-7-5,85.1,71.5,63.3,59.9,56.6,52.5,54,52,47,29.77,29.67,7,0,9,0.00
2013-7-6,85.8,70.9,64.0,62.4,59.2,56.7,54,53,52,29.76,29.65,5,0,10,0.00
2013-7-7,86.5,73.4,64.0,60.4,58.7,54.3,53,51,46,29.78,29.67,7,0,10,0.00
2013-7-8,95.5,77.2,61.9,63.3,57.3,53.4,53,50,46,29.83,29.74,10,0,10,0.00
2013-7-9,91.8,78.7,65.5,63.1,57.3,53.4,52,48,45,29.88,29.79,6,0,9,0.00
2013-7-10,82.2,74.1,68.5,60.1,56.1,53.1,52,49,45,29.89,29.81,10,0,10,0.00
2013-7-11,76.6,72.2,68.0,61.7,57.4,53.8,58,52,47,29.90,29.81,4,0,5,0.01
2013-7-12,87.3,73.9,64.9,62.4,58.8,54.0,55,53,49,29.87,29.75,6,0,9,0.00
2013-7-13,88.5,72.8,61.5,62.6,59.2,55.4,53,51,49,29.88,29.75,7,0,8,0.00
2013-7-14,89.2,73.7,62.1,62.6,59.5,56.1,53,51,46,29.86,29.72,7,0,9,0.00
2013-7-15,88.2,74.7,63.3,58.8,55.6,52.7,51,48,44,29.79,29.69,6,0,7,0.00
2013-7-16,88.9,72.7,57.4,59.0,54.4,50.7,51,47,44,29.92,29.78,10,0,10,0.00
2013-7-17,90.0,74.7,57.6,58.6,54.4,50.2,50,46,43,29.96,29.86,6,0,6,0.00
2013-7-18,87.4,73.2,59.0,60.3,54.4,49.8,53,47,43,29.91,29.75,6,0,9,0.00
2013-7-19,87.3,72.5,60.6,60.1,55.9,51.6,54,49,45,29.83,29.73,7,0,7,0.00
2013-7-20,83.5,69.9,62.8,60.3,57.1,55.2,55,50,48,29.81,29.69,7,0,9,0.00
2013-7-21,75.6,70.2,65.8,59.2,56.4,52.7,53,51,46,29.86,29.73,6,0,7,0.00
2013-7-22,85.6,74.7,66.4,62.8,58.2,54.1,55,52,47,29.91,29.83,9,0,11,0.00
2013-7-23,84.7,73.7,64.9,61.3,57.0,53.4,54,51,47,29.95,29.84,5,0,9,0.00